Regional Weather Roundup
Issued by NWS Cleveland, OH

Home | Current Version | Previous Version | Text Only | Print | Product List | Glossary Off
Versions: 1 2 3 4 5 6 7 8 9 10 11 12 13 14 15 16 17 18 19 20 21 22 23 24 25 26 27 28 29 30 31 32 33 34 35 36 37 38 39 40 41 42 43 44 45 46 47 48 49 50

000
ASUS41 KCLE 191210
RWRCLE
OHIO REGIONAL WEATHER ROUNDUP
NATIONAL WEATHER SERVICE CLEVELAND, OH
800 AM EDT FRI SEP 19 2014

NOTE: "FAIR" INDICATES FEW OR NO CLOUDS BELOW 12,000 FEET WITH NO
SIGNIFICANT WEATHER AND/OR OBSTRUCTIONS TO VISIBILITY.

OHZ001>008-015>018-024>027-034-035-043-044-191300-
   NORTHWEST OHIO

CITY           SKY/WX    TMP DP  RH WIND       PRES   REMARKS
DEFIANCE       CLEAR     48  45  89 NE5       30.25R FOG
FINDLAY        PTCLDY    51  49  92 E6        30.23R FOG
TOLEDO EXPRESS CLEAR     46  45  96 CALM      30.25R
TOLEDO EXEC    CLEAR     49  45  86 N3        30.25R
LIMA           CLEAR     50  47  89 E8        30.22R FOG
$$

OHZ009>014-019>023-028>033-038-089-191300-
   NORTHEAST OHIO

CITY           SKY/WX    TMP DP  RH WIND       PRES   REMARKS
CLE-HOPKINS    PTCLDY    48  46  93 S5        30.26R FOG
CLE-LAKEFRONT  PTCLDY    52  47  83 SE8       30.23R
CUY CO. ARPT   PTCLDY    52  50  93 SE7       30.25R
LORAIN-ELYRIA  CLEAR     47  44  90 SW5       30.25R FOG
ASHTABULA      CLEAR     47  45  93 SE6       30.26R
AKRON-CANTON   PTCLDY    48  45  89 E3        30.24R FOG
WOOSTER        FOG       44  41  89 CALM      30.25R VSB<1/4
MANSFIELD      CLEAR     49  48  97 CALM      30.24R FOG
YOUNGSTOWN     PTCLDY    44  44 100 E6        30.25R FOG
$$

OHZ042-051>053-060>062-070>072-077>081-191300-
  SOUTHWEST OHIO

CITY           SKY/WX    TMP DP  RH WIND       PRES   REMARKS
CINC-COVINGTON CLEAR     55  49  80 E8        30.17R
CINC-LUNKEN    PTCLDY    45  44  97 CALM      30.19R
HAMILTON       CLEAR     49  47  93 N3        30.20R
DAYTON         PTCLDY    51  48  89 E6        30.21R
WRIGHT-PAT AFB PTCLDY    50  48  94 NE5       30.20R
DAYTON GENERAL CLEAR     50  48  93 E9        30.19R
WILMINGTON     CLEAR     48  45  89 NE7       30.19R FOG
$$

OHZ036-037-039>041-045>050-054>059-063>069-073>076-082>088-191300-
  CENTRAL AND SOUTHEAST OHIO

CITY           SKY/WX    TMP DP  RH WIND       PRES   REMARKS
COLUMBUS       CLEAR     54  47  77 NE7       30.20R
OSU AIRPORT    CLEAR     49  46  90 NE5       30.21R
BOLTON FIELD   CLEAR     48  46  93 N3        30.21R
RICKENBACK AFB CLEAR     48  47  95 NE7       30.20R FOG
NEWARK         CLEAR     49  46  90 CALM      30.21R FOG
MARION         CLEAR     45  42  89 NE3       30.23R FOG
LANCASTER      CLEAR     49  46  90 NW3       30.21R FOG
ZANESVILLE     CLEAR     49  46  90 N3        30.21R FOG
NEW PHILLY     CLEAR     45  43  93 CALM      30.24R FOG
$$


USA.gov is the U.S. government's official web portal to all federal, state and local government web resources and services.